• In Hungary
  • List of Countries
  • For 7 days
  • Water Temperature
  • Satellite Maps
  • Weather Map
  • News
  • Weather Widgets
  • user-avatar
    Login

    Hourly Weather Petr Esaulov

    Today, 24 September, Monday

    Time Temperature Precipitation Wind Pressure Humidity
    00:00 +10°C° 0.3 mm 3 mps 746 mmHg 86%
    01:00 +9°C° 0 mm 3 mps 746 mmHg 87%
    02:00 +9°C° 0 mm 3 mps 746 mmHg 88%
    03:00 +8°C° 0 mm 3 mps 746 mmHg 91%
    04:00 +8°C° 0 mm 3 mps 746 mmHg 92%
    05:00 +8°C° 0 mm 3 mps 746 mmHg 93%
    06:00 +7°C° 0 mm 2 mps 747 mmHg 94%
    07:00 +9°C° 0 mm 2 mps 747 mmHg 88%
    08:00 +10°C° 0 mm 2 mps 747 mmHg 83%
    09:00 +12°C° 0 mm 2 mps 747 mmHg 76%
    10:00 +13°C° 0 mm 2 mps 747 mmHg 69%
    11:00 +14°C° 0 mm 3 mps 747 mmHg 62%
    12:00 +16°C° 0 mm 3 mps 747 mmHg 55%
    13:00 +15°C° 0 mm 4 mps 746 mmHg 53%
    14:00 +15°C° 0 mm 4 mps 746 mmHg 51%
    15:00 +17°C° 0 mm 4 mps 745 mmHg 49%
    16:00 +15°C° 0 mm 4 mps 745 mmHg 51%
    17:00 +14°C° 0 mm 4 mps 744 mmHg 54%
    18:00 +14°C° 0 mm 3 mps 744 mmHg 57%
    19:00 +14°C° 0.1 mm 4 mps 743 mmHg 57%
    20:00 +14°C° 0.1 mm 5 mps 743 mmHg 57%
    21:00 +14°C° 0.1 mm 6 mps 742 mmHg 56%
    22:00 +12°C° 1 mm 7 mps 741 mmHg 62%
    23:00 +12°C° 1 mm 7 mps 741 mmHg 68%

    Tomorrow, 25 September, Tuesday

    Time Temperature Precipitation Wind Pressure Humidity
    00:00 +11°C° 1 mm 7 mps 740 mmHg 73%
    01:00 +11°C° 0.7 mm 7 mps 740 mmHg 76%
    02:00 +11°C° 0.7 mm 7 mps 739 mmHg 78%
    03:00 +11°C° 0.7 mm 7 mps 739 mmHg 80%
    04:00 +10°C° 0.5 mm 6 mps 739 mmHg 82%
    05:00 +10°C° 0.5 mm 6 mps 739 mmHg 84%
    06:00 +9°C° 0.5 mm 5 mps 739 mmHg 86%
    07:00 +9°C° 0.4 mm 5 mps 739 mmHg 84%
    08:00 +9°C° 0.4 mm 5 mps 739 mmHg 81%
    09:00 +9°C° 0.4 mm 5 mps 740 mmHg 79%
    10:00 +9°C° 0 mm 6 mps 740 mmHg 76%
    11:00 +9°C° 0 mm 6 mps 741 mmHg 73%
    12:00 +10°C° 0 mm 6 mps 741 mmHg 70%
    13:00 +10°C° 0 mm 6 mps 741 mmHg 69%
    14:00 +10°C° 0 mm 6 mps 742 mmHg 68%
    15:00 +10°C° 0 mm 6 mps 742 mmHg 67%
    16:00 +10°C° 0 mm 6 mps 743 mmHg 69%
    17:00 +9°C° 0 mm 6 mps 743 mmHg 71%
    18:00 +9°C° 0 mm 5 mps 744 mmHg 73%
    19:00 +8°C° 0 mm 5 mps 744 mmHg 75%
    20:00 +8°C° 0 mm 5 mps 745 mmHg 77%
    21:00 +7°C° 0 mm 4 mps 745 mmHg 79%
    22:00 +7°C° 0 mm 4 mps 746 mmHg 80%
    23:00 +6°C° 0 mm 4 mps 746 mmHg 80%

    Day after tomorrow, 26 September, Wednesday

    Time Temperature Precipitation Wind Pressure Humidity
    00:00 +6°C° 0 mm 4 mps 747 mmHg 81%
    01:00 +6°C° 0 mm 4 mps 747 mmHg 82%
    02:00 +5°C° 0 mm 4 mps 747 mmHg 82%
    03:00 +5°C° 0 mm 4 mps 748 mmHg 83%
    04:00 +5°C° 0 mm 4 mps 748 mmHg 84%
    05:00 +5°C° 0 mm 4 mps 749 mmHg 85%
    06:00 +4°C° 0 mm 4 mps 750 mmHg 85%
    07:00 +5°C° 0 mm 4 mps 750 mmHg 81%
    08:00 +6°C° 0 mm 5 mps 751 mmHg 77%
    09:00 +6°C° 0 mm 5 mps 751 mmHg 73%
    10:00 +7°C° 0 mm 5 mps 752 mmHg 69%
    11:00 +7°C° 0 mm 5 mps 752 mmHg 65%
    12:00 +8°C° 0 mm 5 mps 753 mmHg 62%
    13:00 +8°C° 0 mm 5 mps 753 mmHg 59%
    14:00 +9°C° 0 mm 5 mps 753 mmHg 56%
    15:00 +9°C° 0 mm 5 mps 753 mmHg 53%
    16:00 +8°C° 0 mm 4 mps 753 mmHg 55%
    17:00 +9°C° 0 mm 3 mps 754 mmHg 57%
    18:00 +8°C° 0 mm 3 mps 754 mmHg 60%
    19:00 +7°C° 0 mm 3 mps 754 mmHg 61%
    20:00 +5°C° 0 mm 3 mps 754 mmHg 63%
    21:00 +5°C° 0 mm 3 mps 754 mmHg 64%
    22:00 +5°C° 0 mm 3 mps 754 mmHg 65%
    23:00 +4°C° 0 mm 3 mps 754 mmHg 66%

    27 September, Thursday

    Time Temperature Precipitation Wind Pressure Humidity
    00:00 +4°C° 0 mm 4 mps 753 mmHg 67%
    01:00 +4°C° 0 mm 4 mps 753 mmHg 67%
    02:00 +3°C° 0 mm 5 mps 752 mmHg 66%
    03:00 +3°C° 0 mm 5 mps 752 mmHg 65%
    04:00 +3°C° 0 mm 6 mps 751 mmHg 65%
    05:00 +4°C° 0 mm 6 mps 750 mmHg 65%
    06:00 +4°C° 0 mm 7 mps 750 mmHg 65%
    07:00 +4°C° 0.3 mm 8 mps 749 mmHg 66%
    08:00 +4°C° 0.3 mm 8 mps 749 mmHg 67%
    09:00 +5°C° 0.3 mm 9 mps 748 mmHg 68%
    10:00 +5°C° 0.7 mm 9 mps 748 mmHg 71%
    11:00 +5°C° 0.7 mm 9 mps 747 mmHg 73%
    12:00 +5°C° 0.7 mm 10 mps 747 mmHg 75%
    13:00 +5°C° 0.6 mm 9 mps 746 mmHg 78%
    14:00 +5°C° 0.6 mm 9 mps 746 mmHg 80%
    15:00 +6°C° 0.6 mm 8 mps 746 mmHg 82%
    16:00 +6°C° 0.1 mm 8 mps 746 mmHg 83%
    17:00 +6°C° 0.1 mm 8 mps 745 mmHg 83%
    18:00 +6°C° 0.1 mm 7 mps 745 mmHg 84%
    19:00 +6°C° 0.2 mm 7 mps 745 mmHg 85%
    20:00 +8°C° 0.2 mm 7 mps 745 mmHg 87%
    21:00 +8°C° 0.2 mm 6 mps 745 mmHg 88%
    22:00 +8°C° 0.6 mm 6 mps 745 mmHg 89%
    23:00 +8°C° 0.6 mm 6 mps 745 mmHg 90%

    28 September, Friday

    Time Temperature Precipitation Wind Pressure Humidity
    00:00 +8°C° 0.6 mm 5 mps 745 mmHg 91%
    01:00 +8°C° 0 mm 5 mps 745 mmHg 92%
    02:00 +8°C° 0 mm 4 mps 745 mmHg 92%
    03:00 +9°C° 0 mm 3 mps 745 mmHg 93%
    04:00 +9°C° 0.1 mm 3 mps 745 mmHg 94%
    05:00 +9°C° 0.1 mm 3 mps 745 mmHg 94%
    06:00 +9°C° 0.1 mm 3 mps 744 mmHg 95%
    07:00 +10°C° 0.1 mm 3 mps 744 mmHg 93%
    08:00 +10°C° 0.1 mm 3 mps 744 mmHg 91%
    09:00 +11°C° 0.1 mm 4 mps 744 mmHg 89%
    10:00 +12°C° 0.1 mm 5 mps 744 mmHg 85%
    11:00 +13°C° 0.1 mm 6 mps 744 mmHg 80%
    12:00 +14°C° 0.1 mm 7 mps 743 mmHg 76%
    13:00 +13°C° 0 mm 8 mps 743 mmHg 76%
    14:00 +13°C° 0 mm 8 mps 743 mmHg 77%
    15:00 +13°C° 0 mm 8 mps 742 mmHg 78%
    16:00 +13°C° 0 mm 8 mps 742 mmHg 78%
    17:00 +13°C° 0 mm 8 mps 742 mmHg 78%
    18:00 +13°C° 0 mm 8 mps 743 mmHg 78%
    19:00 +12°C° 0.3 mm 7 mps 743 mmHg 80%
    20:00 +13°C° 0.3 mm 6 mps 743 mmHg 82%
    21:00 +12°C° 0.3 mm 5 mps 744 mmHg 84%
    22:00 +11°C° 0.2 mm 4 mps 744 mmHg 84%
    23:00 +11°C° 0.2 mm 3 mps 745 mmHg 85%

    29 September, Saturday

    Time Temperature Precipitation Wind Pressure Humidity
    00:00 +10°C° 0.2 mm 3 mps 745 mmHg 85%
    01:00 +9°C° 0 mm 2 mps 746 mmHg 85%
    02:00 +9°C° 0 mm 2 mps 746 mmHg 86%
    03:00 +8°C° 0 mm 2 mps 747 mmHg 87%
    04:00 +7°C° 0 mm 2 mps 747 mmHg 88%
    05:00 +7°C° 0 mm 2 mps 747 mmHg 89%
    06:00 +7°C° 0 mm 1 mps 748 mmHg 90%
    07:00 +7°C° 0 mm 2 mps 748 mmHg 84%
    08:00 +8°C° 0 mm 2 mps 749 mmHg 79%
    09:00 +8°C° 0 mm 2 mps 749 mmHg 73%
    10:00 +9°C° 0 mm 2 mps 749 mmHg 67%
    11:00 +12°C° 0 mm 2 mps 749 mmHg 62%
    12:00 +13°C° 0 mm 2 mps 749 mmHg 56%
    13:00 +13°C° 0 mm 2 mps 749 mmHg 56%
    14:00 +13°C° 0 mm 2 mps 749 mmHg 56%
    15:00 +14°C° 0 mm 2 mps 748 mmHg 55%
    16:00 +13°C° 0 mm 2 mps 748 mmHg 60%
    17:00 +12°C° 0 mm 2 mps 748 mmHg 64%
    18:00 +12°C° 0 mm 2 mps 748 mmHg 68%
    19:00 +10°C° 0.3 mm 2 mps 748 mmHg 71%
    20:00 +10°C° 0.3 mm 3 mps 748 mmHg 74%
    21:00 +9°C° 0.3 mm 3 mps 748 mmHg 77%
    22:00 +9°C° 0.9 mm 3 mps 749 mmHg 80%
    23:00 +8°C° 0.9 mm 3 mps 749 mmHg 84%
    Show more